Zurück zum Katalog

STARLINK-5117

AktivKommunikationVLEO
NORAD 54172·PAYLOAD·🇺🇸 United States

Gestartet Oct 28, 2022 von Vandenberg Space Force Base

Loading…

Nächste Überflüge (nächste 24 Stunden)

TLE

AktuellSource: CelesTrak SupGP

Epoche: Sep 14, 2026, 13:41 UTC

1 54172C 22141R   26257.57062500 -.00037127  00000+0 -11269-2 0  2575
2 54172  53.1565 221.7272 0001297  91.8558 126.0836 15.33558845    18

Verfolge STARLINK-5117 in Echtzeit mit AllMySat

Download on the App Store